Weather History for London Gatwick, United Kingdom

Change the Weather History Date:

Friday, July 5, 2013

  Actual Average Record
Temperature  
Mean Temperature 64 °F -  
Max Temperature 77 °F 71 °F 82 °F (2001)
Min Temperature 51 °F 52 °F 41 °F (2004)
Degree Days  
Heating Degree Days 1    
Growing Degree Days 14 (Base 50)    
Moisture  
Dew Point 54 °F    
Average Humidity 72    
Maximum Humidity 94    
Minimum Humidity 47    
Precipitation  
Precipitation 0.00 in 0.06 in - ()
Sea Level Pressure  
Sea Level Pressure 30.37 in    
Wind  
Wind Speed 4 mph ()    
Max Wind Speed 10 mph    
Max Gust Speed -    
Visibility 6.1 miles    
Events      
Averages and records for this station are not official NWS values.
T = Trace of Precipitation, MM = Missing Value Source: Averaged Metar Reports

Daily Weather History Graph

Daily Weather History Graph

Search for Another Location

Airport:

Trip Planner

Search our weather history database for the weather conditions in past years. The results will help you decide how hot, cold, wet, or windy it might be!

Date:

Astronomy

Jul. 05, 2013 Rise Set
Actual Time 4:52 AM BST 9:17 PM BST
Civil Twilight 4:07 AM BST 10:03 PM BST
Nautical Twilight 2:58 AM BST 11:11 PM BST
Astronomical Twilight 1:37 AM BST 12:33 AM BST
Moon 2:49 AM BST (7/5) 6:53 PM BST (7/5)
Length of Visible Light 17h 56m
Length of Day
16h 24m
Waning Crescent, 7% of the Moon is Illuminated
Jul 5
Waning Crescent
Jul 8
New
Jul 16
First Quarter
Jul 22
Full
Jul 29
Last Quarter

Hourly Weather History & Observations

Time (BST) Temp. Dew Point Humidity Pressure Visibility Wind Dir Wind Speed Gust Speed Precip Events Conditions
12:20 AM 57.2 °F 55.4 °F 94% 30.27 in 5.0 mi SW 4.6 mph - N/A   Unknown
12:50 AM 57.2 °F 55.4 °F 94% 30.30 in - SW 3.5 mph - N/A   Clear
1:20 AM 55.4 °F 53.6 °F 94% 30.30 in - Variable 2.3 mph - N/A   Clear
1:50 AM 55.4 °F 51.8 °F 88% 30.30 in - WSW 2.3 mph - N/A   Clear
2:20 AM 53.6 °F 51.8 °F 94% 30.30 in - SSW 3.5 mph - N/A   Clear
2:50 AM 53.6 °F 51.8 °F 94% 30.30 in - Variable 2.3 mph - N/A   Clear
3:20 AM 53.6 °F 50.0 °F 88% 30.30 in - SW 3.5 mph - N/A   Clear
3:50 AM 51.8 °F 50.0 °F 94% 30.30 in 5.6 mi SW 2.3 mph - N/A   Unknown
4:20 AM 51.8 °F 50.0 °F 94% 30.30 in - Variable 2.3 mph - N/A   Clear
4:50 AM 51.8 °F 50.0 °F 94% 30.33 in - Calm Calm - N/A   Clear
5:20 AM 51.8 °F 50.0 °F 94% 30.33 in - Variable 2.3 mph - N/A   Clear
5:50 AM 51.8 °F 50.0 °F 94% 30.36 in - Variable 3.5 mph - N/A   Clear
6:20 AM 53.6 °F 51.8 °F 94% 30.36 in 6.2 mi Variable 3.5 mph - N/A   Scattered Clouds
6:50 AM 55.4 °F 51.8 °F 88% 30.36 in 6.2 mi NW 4.6 mph - N/A   Mostly Cloudy
7:20 AM 57.2 °F 53.6 °F 88% 30.36 in 6.2 mi North 4.6 mph - N/A   Mostly Cloudy
7:50 AM 59.0 °F 53.6 °F 82% 30.36 in 6.2 mi NNE 5.8 mph - N/A   Partly Cloudy
8:20 AM 60.8 °F 55.4 °F 82% 30.39 in 6.2 mi Variable 3.5 mph - N/A   Scattered Clouds
8:50 AM 62.6 °F 53.6 °F 72% 30.39 in 6.2 mi NE 6.9 mph - N/A   Scattered Clouds
9:20 AM 64.4 °F 53.6 °F 68% 30.39 in 6.2 mi ENE 6.9 mph - N/A   Scattered Clouds
9:50 AM 66.2 °F 53.6 °F 64% 30.39 in 6.2 mi ENE 8.1 mph - N/A   Scattered Clouds
10:20 AM 68.0 °F 53.6 °F 60% 30.39 in 6.2 mi East 10.4 mph - N/A   Partly Cloudy
10:50 AM 69.8 °F 53.6 °F 56% 30.39 in 6.2 mi East 5.8 mph - N/A   Partly Cloudy
11:20 AM 69.8 °F 55.4 °F 60% 30.39 in 6.2 mi Variable 5.8 mph - N/A   Partly Cloudy
11:50 AM 71.6 °F 55.4 °F 57% 30.39 in - ENE 5.8 mph - N/A   Clear
12:20 PM 73.4 °F 55.4 °F 53% 30.39 in 6.2 mi ENE 5.8 mph - N/A   Partly Cloudy
12:50 PM 73.4 °F 55.4 °F 53% 30.39 in 6.2 mi Variable 5.8 mph - N/A   Scattered Clouds
1:20 PM 71.6 °F 55.4 °F 57% 30.39 in 6.2 mi NE 5.8 mph - N/A   Scattered Clouds
1:50 PM 73.4 °F 57.2 °F 57% 30.39 in 6.2 mi East 8.1 mph - N/A   Scattered Clouds
2:20 PM 73.4 °F 53.6 °F 50% 30.39 in 6.2 mi NE 5.8 mph - N/A   Scattered Clouds
2:50 PM 75.2 °F 55.4 °F 50% 30.39 in 6.2 mi East 6.9 mph - N/A   Scattered Clouds
3:20 PM 75.2 °F 53.6 °F 47% 30.39 in 6.2 mi Variable 4.6 mph - N/A   Partly Cloudy
3:50 PM 75.2 °F 53.6 °F 47% 30.39 in - ENE 5.8 mph - N/A   Clear
4:20 PM 77.0 °F 55.4 °F 47% 30.39 in 6.2 mi East 6.9 mph - N/A   Scattered Clouds
4:50 PM 75.2 °F 55.4 °F 50% 30.39 in 6.2 mi East 5.8 mph - N/A   Partly Cloudy
5:20 PM 73.4 °F 55.4 °F 53% 30.39 in 6.2 mi East 6.9 mph - N/A   Partly Cloudy
5:50 PM 73.4 °F 59.0 °F 61% 30.39 in 6.2 mi SSE 8.1 mph - N/A   Scattered Clouds
6:20 PM 71.6 °F 59.0 °F 64% 30.39 in 6.2 mi South 8.1 mph - N/A   Mostly Cloudy
6:50 PM 71.6 °F 57.2 °F 60% 30.39 in 6.2 mi SSE 8.1 mph - N/A   Partly Cloudy
7:20 PM 69.8 °F 55.4 °F 60% 30.39 in - South 8.1 mph - N/A   Clear
7:50 PM 68.0 °F 55.4 °F 64% 30.42 in - South 6.9 mph - N/A   Clear
8:20 PM 66.2 °F 55.4 °F 68% 30.42 in - South 4.6 mph - N/A   Clear
8:50 PM 64.4 °F 53.6 °F 68% 30.42 in - SSE 6.9 mph - N/A   Clear
9:20 PM 64.4 °F 53.6 °F 68% 30.42 in - SSE 3.5 mph - N/A   Clear
9:50 PM 62.6 °F 53.6 °F 72% 30.42 in - Variable 3.5 mph - N/A   Clear
10:20 PM 60.8 °F 53.6 °F 77% 30.42 in - ESE 3.5 mph - N/A   Clear
10:50 PM 59.0 °F 53.6 °F 82% 30.42 in - Variable 2.3 mph - N/A   Clear
11:20 PM 57.2 °F 53.6 °F 88% 30.42 in - East 4.6 mph - N/A   Clear
11:50 PM 59.0 °F 51.8 °F 77% 30.42 in - East 3.5 mph - N/A   Clear